owner,sensor,date,latitude,longitude,sea_water_turbidity,qcFlag 
NERRS,ioos:station:NOAA.NERRS:wkbfrwq:1,2016-12-01T00:45:00Z,30.4162,-87.8228,35.0,1111122 
NERRS,ioos:station:NOAA.NERRS:wkbfrwq:1,2016-12-01T01:45:00Z,30.4162,-87.8228,43.0,1111122 
NERRS,ioos:station:NOAA.NERRS:wkbfrwq:1,2016-12-01T02:45:00Z,30.4162,-87.8228,45.0,1111122 
NERRS,ioos:station:NOAA.NERRS:wkbfrwq:1,2016-12-01T03:45:00Z,30.4162,-87.8228,40.0,1111122 
NERRS,ioos:station:NOAA.NERRS:wkbfrwq:1,2016-12-01T05:45:00Z,30.4162,-87.8228,45.0,1111122 
NERRS,ioos:station:NOAA.NERRS:wkbfrwq:1,2016-12-01T06:45:00Z,30.4162,-87.8228,44.0,1111122 
NERRS,ioos:station:NOAA.NERRS:wkbfrwq:1,2016-12-01T07:45:00Z,30.4162,-87.8228,53.0,1111122 
NERRS,ioos:station:NOAA.NERRS:wkbfrwq:1,2016-12-01T08:45:00Z,30.4162,-87.8228,46.0,1111122 
NERRS,ioos:station:NOAA.NERRS:wkbfrwq:1,2016-12-01T09:45:00Z,30.4162,-87.8228,45.0,1111122 
NERRS,ioos:station:NOAA.NERRS:wkbfrwq:1,2016-12-01T11:45:00Z,30.4162,-87.8228,39.0,1111122 
NERRS,ioos:station:NOAA.NERRS:wkbfrwq:1,2016-12-01T12:45:00Z,30.4162,-87.8228,41.0,1111122 
NERRS,ioos:station:NOAA.NERRS:wkbfrwq:1,2016-12-01T13:45:00Z,30.4162,-87.8228,44.0,1111122 
NERRS,ioos:station:NOAA.NERRS:wkbfrwq:1,2016-12-01T14:45:00Z,30.4162,-87.8228,40.0,1111122 
NERRS,ioos:station:NOAA.NERRS:wkbfrwq:1,2016-12-01T15:45:00Z,30.4162,-87.8228,43.0,1111122 
NERRS,ioos:station:NOAA.NERRS:wkbfrwq:1,2016-12-01T17:45:00Z,30.4162,-87.8228,47.0,1111122 
NERRS,ioos:station:NOAA.NERRS:wkbfrwq:1,2016-12-01T18:45:00Z,30.4162,-87.8228,50.0,1111122 
NERRS,ioos:station:NOAA.NERRS:wkbfrwq:1,2016-12-01T19:45:00Z,30.4162,-87.8228,53.0,1111122 
NERRS,ioos:station:NOAA.NERRS:wkbfrwq:1,2016-12-01T20:45:00Z,30.4162,-87.8228,53.0,1111122 
NERRS,ioos:station:NOAA.NERRS:wkbfrwq:1,2016-12-01T21:45:00Z,30.4162,-87.8228,53.0,1111122 
NERRS,ioos:station:NOAA.NERRS:wkbfrwq:1,2016-12-01T22:45:00Z,30.4162,-87.8228,62.0,1111122 
NERRS,ioos:station:NOAA.NERRS:wkbfrwq:1,2016-12-02T01:45:00Z,30.4162,-87.8228,65.0,1111122 
NERRS,ioos:station:NOAA.NERRS:wkbfrwq:1,2016-12-02T02:45:00Z,30.4162,-87.8228,66.0,1111122 
NERRS,ioos:station:NOAA.NERRS:wkbfrwq:1,2016-12-02T03:45:00Z,30.4162,-87.8228,74.0,1111122 
NERRS,ioos:station:NOAA.NERRS:wkbfrwq:1,2016-12-02T04:45:00Z,30.4162,-87.8228,66.0,1111122 
NERRS,ioos:station:NOAA.NERRS:wkbfrwq:1,2016-12-02T05:45:00Z,30.4162,-87.8228,59.0,1111122 
NERRS,ioos:station:NOAA.NERRS:wkbfrwq:1,2016-12-02T06:45:00Z,30.4162,-87.8228,63.0,1111122 
NERRS,ioos:station:NOAA.NERRS:wkbfrwq:1,2016-12-02T08:45:00Z,30.4162,-87.8228,64.0,1111122 
NERRS,ioos:station:NOAA.NERRS:wkbfrwq:1,2016-12-02T09:45:00Z,30.4162,-87.8228,64.0,1111122 
NERRS,ioos:station:NOAA.NERRS:wkbfrwq:1,2016-12-02T10:45:00Z,30.4162,-87.8228,72.0,1111122 
NERRS,ioos:station:NOAA.NERRS:wkbfrwq:1,2016-12-02T11:45:00Z,30.4162,-87.8228,68.0,1111122 
NERRS,ioos:station:NOAA.NERRS:wkbfrwq:1,2016-12-02T14:45:00Z,30.4162,-87.8228,64.0,1111122 
NERRS,ioos:station:NOAA.NERRS:wkbfrwq:1,2016-12-02T15:45:00Z,30.4162,-87.8228,72.0,1111122 
NERRS,ioos:station:NOAA.NERRS:wkbfrwq:1,2016-12-02T16:45:00Z,30.4162,-87.8228,82.0,1111122 
NERRS,ioos:station:NOAA.NERRS:wkbfrwq:1,2016-12-02T19:45:00Z,30.4162,-87.8228,97.0,1111122 
NERRS,ioos:station:NOAA.NERRS:wkbfrwq:1,2016-12-02T20:45:00Z,30.4162,-87.8228,97.0,1111122 
NERRS,ioos:station:NOAA.NERRS:wkbfrwq:1,2016-12-02T21:45:00Z,30.4162,-87.8228,105.0,1111122 
NERRS,ioos:station:NOAA.NERRS:wkbfrwq:1,2016-12-02T22:45:00Z,30.4162,-87.8228,99.0,1111122 
NERRS,ioos:station:NOAA.NERRS:wkbfrwq:1,2016-12-03T00:45:00Z,30.4162,-87.8228,104.0,1111122 
NERRS,ioos:station:NOAA.NERRS:wkbfrwq:1,2016-12-03T01:45:00Z,30.4162,-87.8228,104.0,1111122 
NERRS,ioos:station:NOAA.NERRS:wkbfrwq:1,2016-12-03T02:45:00Z,30.4162,-87.8228,106.0,1111122 
NERRS,ioos:station:NOAA.NERRS:wkbfrwq:1,2016-12-03T03:45:00Z,30.4162,-87.8228,115.0,1111122 
NERRS,ioos:station:NOAA.NERRS:wkbfrwq:1,2016-12-03T04:45:00Z,30.4162,-87.8228,107.0,1111122 
NERRS,ioos:station:NOAA.NERRS:wkbfrwq:1,2016-12-03T05:45:00Z,30.4162,-87.8228,105.0,1111122 
NERRS,ioos:station:NOAA.NERRS:wkbfrwq:1,2016-12-03T06:45:00Z,30.4162,-87.8228,111.0,1111122 
NERRS,ioos:station:NOAA.NERRS:wkbfrwq:1,2016-12-03T07:45:00Z,30.4162,-87.8228,115.0,1111122 
NERRS,ioos:station:NOAA.NERRS:wkbfrwq:1,2016-12-03T08:45:00Z,30.4162,-87.8228,100.0,1111122 
NERRS,ioos:station:NOAA.NERRS:wkbfrwq:1,2016-12-03T09:45:00Z,30.4162,-87.8228,111.0,1111122 
NERRS,ioos:station:NOAA.NERRS:wkbfrwq:1,2016-12-03T10:45:00Z,30.4162,-87.8228,105.0,1111122 
NERRS,ioos:station:NOAA.NERRS:wkbfrwq:1,2016-12-03T11:45:00Z,30.4162,-87.8228,79.0,1111122 
NERRS,ioos:station:NOAA.NERRS:wkbfrwq:1,2016-12-03T12:45:00Z,30.4162,-87.8228,95.0,1111122 
NERRS,ioos:station:NOAA.NERRS:wkbfrwq:1,2016-12-03T13:45:00Z,30.4162,-87.8228,103.0,1111122 
NERRS,ioos:station:NOAA.NERRS:wkbfrwq:1,2016-12-03T14:45:00Z,30.4162,-87.8228,105.0,1111122 
NERRS,ioos:station:NOAA.NERRS:wkbfrwq:1,2016-12-03T15:45:00Z,30.4162,-87.8228,78.0,1111122 
NERRS,ioos:station:NOAA.NERRS:wkbfrwq:1,2016-12-03T16:45:00Z,30.4162,-87.8228,102.0,1111122 
NERRS,ioos:station:NOAA.NERRS:wkbfrwq:1,2016-12-03T17:45:00Z,30.4162,-87.8228,118.0,1111122 
NERRS,ioos:station:NOAA.NERRS:wkbfrwq:1,2016-12-03T18:45:00Z,30.4162,-87.8228,118.0,1111122 
NERRS,ioos:station:NOAA.NERRS:wkbfrwq:1,2016-12-03T19:45:00Z,30.4162,-87.8228,123.0,1111122 
NERRS,ioos:station:NOAA.NERRS:wkbfrwq:1,2016-12-03T20:45:00Z,30.4162,-87.8228,129.0,1111122 
NERRS,ioos:station:NOAA.NERRS:wkbfrwq:1,2016-12-03T21:45:00Z,30.4162,-87.8228,123.0,1111122 
NERRS,ioos:station:NOAA.NERRS:wkbfrwq:1,2016-12-03T22:45:00Z,30.4162,-87.8228,114.0,1111122 
NERRS,ioos:station:NOAA.NERRS:wkbfrwq:1,2016-12-03T23:45:00Z,30.4162,-87.8228,142.0,1111122 
NERRS,ioos:station:NOAA.NERRS:wkbfrwq:1,2016-12-04T00:45:00Z,30.4162,-87.8228,129.0,1111122 
NERRS,ioos:station:NOAA.NERRS:wkbfrwq:1,2016-12-04T01:45:00Z,30.4162,-87.8228,124.0,1111122 
NERRS,ioos:station:NOAA.NERRS:wkbfrwq:1,2016-12-04T03:45:00Z,30.4162,-87.8228,145.0,1111122 
NERRS,ioos:station:NOAA.NERRS:wkbfrwq:1,2016-12-04T04:45:00Z,30.4162,-87.8228,149.0,1111122 
NERRS,ioos:station:NOAA.NERRS:wkbfrwq:1,2016-12-04T05:45:00Z,30.4162,-87.8228,133.0,1111122 
NERRS,ioos:station:NOAA.NERRS:wkbfrwq:1,2016-12-04T06:45:00Z,30.4162,-87.8228,143.0,1111122 
NERRS,ioos:station:NOAA.NERRS:wkbfrwq:1,2016-12-04T07:45:00Z,30.4162,-87.8228,156.0,1111122 
NERRS,ioos:station:NOAA.NERRS:wkbfrwq:1,2016-12-04T08:45:00Z,30.4162,-87.8228,126.0,1111122 
NERRS,ioos:station:NOAA.NERRS:wkbfrwq:1,2016-12-04T09:45:00Z,30.4162,-87.8228,124.0,1111122 
NERRS,ioos:station:NOAA.NERRS:wkbfrwq:1,2016-12-04T10:45:00Z,30.4162,-87.8228,133.0,1111122 
NERRS,ioos:station:NOAA.NERRS:wkbfrwq:1,2016-12-04T11:45:00Z,30.4162,-87.8228,143.0,1111122 
NERRS,ioos:station:NOAA.NERRS:wkbfrwq:1,2016-12-04T14:45:00Z,30.4162,-87.8228,152.0,1111122 
NERRS,ioos:station:NOAA.NERRS:wkbfrwq:1,2016-12-04T17:45:00Z,30.4162,-87.8228,60.0,1111122 
NERRS,ioos:station:NOAA.NERRS:wkbfrwq:1,2016-12-04T18:45:00Z,30.4162,-87.8228,86.0,1111122 
NERRS,ioos:station:NOAA.NERRS:wkbfrwq:1,2016-12-04T19:45:00Z,30.4162,-87.8228,127.0,1111122 
NERRS,ioos:station:NOAA.NERRS:wkbfrwq:1,2016-12-04T20:45:00Z,30.4162,-87.8228,123.0,1111122 
NERRS,ioos:station:NOAA.NERRS:wkbfrwq:1,2016-12-04T23:45:00Z,30.4162,-87.8228,142.0,1111122 
NERRS,ioos:station:NOAA.NERRS:wkbfrwq:1,2016-12-05T00:45:00Z,30.4162,-87.8228,139.0,1111122 
NERRS,ioos:station:NOAA.NERRS:wkbfrwq:1,2016-12-05T01:45:00Z,30.4162,-87.8228,87.0,1111122 
NERRS,ioos:station:NOAA.NERRS:wkbfrwq:1,2016-12-05T02:45:00Z,30.4162,-87.8228,87.0,1111122 
NERRS,ioos:station:NOAA.NERRS:wkbfrwq:1,2016-12-05T03:45:00Z,30.4162,-87.8228,121.0,1111122 
NERRS,ioos:station:NOAA.NERRS:wkbfrwq:1,2016-12-05T04:45:00Z,30.4162,-87.8228,142.0,1111122 
NERRS,ioos:station:NOAA.NERRS:wkbfrwq:1,2016-12-05T05:45:00Z,30.4162,-87.8228,129.0,1111122 
NERRS,ioos:station:NOAA.NERRS:wkbfrwq:1,2016-12-05T06:45:00Z,30.4162,-87.8228,109.0,1111122 
NERRS,ioos:station:NOAA.NERRS:wkbfrwq:1,2016-12-05T07:45:00Z,30.4162,-87.8228,151.0,1111122 
NERRS,ioos:station:NOAA.NERRS:wkbfrwq:1,2016-12-05T08:45:00Z,30.4162,-87.8228,143.0,1111122 
NERRS,ioos:station:NOAA.NERRS:wkbfrwq:1,2016-12-05T09:45:00Z,30.4162,-87.8228,136.0,1111122 
NERRS,ioos:station:NOAA.NERRS:wkbfrwq:1,2016-12-05T10:45:00Z,30.4162,-87.8228,120.0,1111122 
NERRS,ioos:station:NOAA.NERRS:wkbfrwq:1,2016-12-05T11:45:00Z,30.4162,-87.8228,138.0,1111122 
NERRS,ioos:station:NOAA.NERRS:wkbfrwq:1,2016-12-05T12:45:00Z,30.4162,-87.8228,83.0,1111122 
NERRS,ioos:station:NOAA.NERRS:wkbfrwq:1,2016-12-05T13:45:00Z,30.4162,-87.8228,100.0,1111122 
NERRS,ioos:station:NOAA.NERRS:wkbfrwq:1,2016-12-05T14:45:00Z,30.4162,-87.8228,84.0,1111122 
NERRS,ioos:station:NOAA.NERRS:wkbfrwq:1,2016-12-05T19:45:00Z,30.4162,-87.8228,137.0,1111122 
NERRS,ioos:station:NOAA.NERRS:wkbfrwq:1,2016-12-06T01:45:00Z,30.4162,-87.8228,81.0,1111122 
NERRS,ioos:station:NOAA.NERRS:wkbfrwq:1,2016-12-06T02:45:00Z,30.4162,-87.8228,131.0,1111122 
NERRS,ioos:station:NOAA.NERRS:wkbfrwq:1,2016-12-06T03:45:00Z,30.4162,-87.8228,165.0,1111122 
NERRS,ioos:station:NOAA.NERRS:wkbfrwq:1,2016-12-06T04:45:00Z,30.4162,-87.8228,168.0,1111122 
NERRS,ioos:station:NOAA.NERRS:wkbfrwq:1,2016-12-06T05:45:00Z,30.4162,-87.8228,101.0,1111122 
NERRS,ioos:station:NOAA.NERRS:wkbfrwq:1,2016-12-06T06:45:00Z,30.4162,-87.8228,91.0,1111122 
NERRS,ioos:station:NOAA.NERRS:wkbfrwq:1,2016-12-06T07:45:00Z,30.4162,-87.8228,161.0,1111122 
NERRS,ioos:station:NOAA.NERRS:wkbfrwq:1,2016-12-06T08:45:00Z,30.4162,-87.8228,175.0,1111122 
NERRS,ioos:station:NOAA.NERRS:wkbfrwq:1,2016-12-06T09:45:00Z,30.4162,-87.8228,178.0,1111122 
NERRS,ioos:station:NOAA.NERRS:wkbfrwq:1,2016-12-06T10:45:00Z,30.4162,-87.8228,138.0,1111122 
NERRS,ioos:station:NOAA.NERRS:wkbfrwq:1,2016-12-06T11:45:00Z,30.4162,-87.8228,94.0,1111122 
NERRS,ioos:station:NOAA.NERRS:wkbfrwq:1,2016-12-06T12:45:00Z,30.4162,-87.8228,92.0,1111122 
NERRS,ioos:station:NOAA.NERRS:wkbfrwq:1,2016-12-06T13:45:00Z,30.4162,-87.8228,90.0,1111122 
NERRS,ioos:station:NOAA.NERRS:wkbfrwq:1,2016-12-06T14:45:00Z,30.4162,-87.8228,118.0,1111122 
NERRS,ioos:station:NOAA.NERRS:wkbfrwq:1,2016-12-06T15:45:00Z,30.4162,-87.8228,143.0,1111122 
NERRS,ioos:station:NOAA.NERRS:wkbfrwq:1,2016-12-06T16:45:00Z,30.4162,-87.8228,146.0,1111122 
NERRS,ioos:station:NOAA.NERRS:wkbfrwq:1,2016-12-06T17:45:00Z,30.4162,-87.8228,139.0,1111122 
NERRS,ioos:station:NOAA.NERRS:wkbfrwq:1,2016-12-06T18:45:00Z,30.4162,-87.8228,147.0,1111122 
NERRS,ioos:station:NOAA.NERRS:wkbfrwq:1,2016-12-06T19:45:00Z,30.4162,-87.8228,155.0,1111122 
NERRS,ioos:station:NOAA.NERRS:wkbfrwq:1,2016-12-06T20:45:00Z,30.4162,-87.8228,166.0,1111122 
NERRS,ioos:station:NOAA.NERRS:wkbfrwq:1,2016-12-06T21:45:00Z,30.4162,-87.8228,159.0,1111122 
NERRS,ioos:station:NOAA.NERRS:wkbfrwq:1,2016-12-06T22:45:00Z,30.4162,-87.8228,186.0,1111122 
NERRS,ioos:station:NOAA.NERRS:wkbfrwq:1,2016-12-06T23:45:00Z,30.4162,-87.8228,268.0,1111122 
NERRS,ioos:station:NOAA.NERRS:wkbfrwq:1,2016-12-07T00:45:00Z,30.4162,-87.8228,263.0,1111122 
NERRS,ioos:station:NOAA.NERRS:wkbfrwq:1,2016-12-07T01:45:00Z,30.4162,-87.8228,221.0,1111122 
NERRS,ioos:station:NOAA.NERRS:wkbfrwq:1,2016-12-07T02:45:00Z,30.4162,-87.8228,273.0,1111122 
NERRS,ioos:station:NOAA.NERRS:wkbfrwq:1,2016-12-07T03:45:00Z,30.4162,-87.8228,265.0,1111122 
NERRS,ioos:station:NOAA.NERRS:wkbfrwq:1,2016-12-07T04:45:00Z,30.4162,-87.8228,229.0,1111122 
NERRS,ioos:station:NOAA.NERRS:wkbfrwq:1,2016-12-07T05:45:00Z,30.4162,-87.8228,283.0,1111122 
NERRS,ioos:station:NOAA.NERRS:wkbfrwq:1,2016-12-07T06:45:00Z,30.4162,-87.8228,285.0,1111122 
NERRS,ioos:station:NOAA.NERRS:wkbfrwq:1,2016-12-07T07:45:00Z,30.4162,-87.8228,300.0,1111122 
NERRS,ioos:station:NOAA.NERRS:wkbfrwq:1,2016-12-07T08:45:00Z,30.4162,-87.8228,298.0,1111122 
NERRS,ioos:station:NOAA.NERRS:wkbfrwq:1,2016-12-07T09:45:00Z,30.4162,-87.8228,279.0,1111122 
NERRS,ioos:station:NOAA.NERRS:wkbfrwq:1,2016-12-07T10:45:00Z,30.4162,-87.8228,362.0,1111122 
NERRS,ioos:station:NOAA.NERRS:wkbfrwq:1,2016-12-07T11:45:00Z,30.4162,-87.8228,241.0,1111122 
NERRS,ioos:station:NOAA.NERRS:wkbfrwq:1,2016-12-07T12:45:00Z,30.4162,-87.8228,234.0,1111122 
NERRS,ioos:station:NOAA.NERRS:wkbfrwq:1,2016-12-07T13:45:00Z,30.4162,-87.8228,176.0,1111122 
NERRS,ioos:station:NOAA.NERRS:wkbfrwq:1,2016-12-07T14:45:00Z,30.4162,-87.8228,233.0,1111122 
NERRS,ioos:station:NOAA.NERRS:wkbfrwq:1,2016-12-07T15:45:00Z,30.4162,-87.8228,249.0,1111122 
NERRS,ioos:station:NOAA.NERRS:wkbfrwq:1,2016-12-07T16:45:00Z,30.4162,-87.8228,226.0,1111122 
NERRS,ioos:station:NOAA.NERRS:wkbfrwq:1,2016-12-07T17:45:00Z,30.4162,-87.8228,214.0,1111122 
NERRS,ioos:station:NOAA.NERRS:wkbfrwq:1,2016-12-07T18:45:00Z,30.4162,-87.8228,220.0,1111122 
NERRS,ioos:station:NOAA.NERRS:wkbfrwq:1,2016-12-07T19:45:00Z,30.4162,-87.8228,247.0,1111122 
NERRS,ioos:station:NOAA.NERRS:wkbfrwq:1,2016-12-07T20:45:00Z,30.4162,-87.8228,287.0,1111122 
NERRS,ioos:station:NOAA.NERRS:wkbfrwq:1,2016-12-07T21:45:00Z,30.4162,-87.8228,327.0,1111122 
NERRS,ioos:station:NOAA.NERRS:wkbfrwq:1,2016-12-07T22:45:00Z,30.4162,-87.8228,323.0,1111122 
NERRS,ioos:station:NOAA.NERRS:wkbfrwq:1,2016-12-07T23:45:00Z,30.4162,-87.8228,300.0,1111122 
NERRS,ioos:station:NOAA.NERRS:wkbfrwq:1,2016-12-08T00:45:00Z,30.4162,-87.8228,299.0,1111122 
NERRS,ioos:station:NOAA.NERRS:wkbfrwq:1,2016-12-08T01:45:00Z,30.4162,-87.8228,355.0,1111122 
NERRS,ioos:station:NOAA.NERRS:wkbfrwq:1,2016-12-08T03:45:00Z,30.4162,-87.8228,284.0,1111122 
NERRS,ioos:station:NOAA.NERRS:wkbfrwq:1,2016-12-08T04:45:00Z,30.4162,-87.8228,307.0,1111122 
NERRS,ioos:station:NOAA.NERRS:wkbfrwq:1,2016-12-08T05:45:00Z,30.4162,-87.8228,225.0,1111122 
NERRS,ioos:station:NOAA.NERRS:wkbfrwq:1,2016-12-08T06:45:00Z,30.4162,-87.8228,261.0,1111122 
NERRS,ioos:station:NOAA.NERRS:wkbfrwq:1,2016-12-08T07:45:00Z,30.4162,-87.8228,288.0,1111122 
NERRS,ioos:station:NOAA.NERRS:wkbfrwq:1,2016-12-08T08:45:00Z,30.4162,-87.8228,272.0,1111122 
NERRS,ioos:station:NOAA.NERRS:wkbfrwq:1,2016-12-08T09:45:00Z,30.4162,-87.8228,168.0,1111122 
NERRS,ioos:station:NOAA.NERRS:wkbfrwq:1,2016-12-08T10:45:00Z,30.4162,-87.8228,236.0,1111122 
NERRS,ioos:station:NOAA.NERRS:wkbfrwq:1,2016-12-08T11:45:00Z,30.4162,-87.8228,218.0,1111122 
NERRS,ioos:station:NOAA.NERRS:wkbfrwq:1,2016-12-08T12:45:00Z,30.4162,-87.8228,254.0,1111122 
NERRS,ioos:station:NOAA.NERRS:wkbfrwq:1,2016-12-08T13:45:00Z,30.4162,-87.8228,265.0,1111122 
NERRS,ioos:station:NOAA.NERRS:wkbfrwq:1,2016-12-08T14:45:00Z,30.4162,-87.8228,191.0,1111122 
NERRS,ioos:station:NOAA.NERRS:wkbfrwq:1,2016-12-08T15:45:00Z,30.4162,-87.8228,145.0,1111122 
NERRS,ioos:station:NOAA.NERRS:wkbfrwq:1,2016-12-08T16:45:00Z,30.4162,-87.8228,121.0,1111122 
NERRS,ioos:station:NOAA.NERRS:wkbfrwq:1,2016-12-08T17:45:00Z,30.4162,-87.8228,180.0,1111122 
NERRS,ioos:station:NOAA.NERRS:wkbfrwq:1,2016-12-08T18:45:00Z,30.4162,-87.8228,269.0,1111122 
NERRS,ioos:station:NOAA.NERRS:wkbfrwq:1,2016-12-08T19:45:00Z,30.4162,-87.8228,306.0,1111122 
NERRS,ioos:station:NOAA.NERRS:wkbfrwq:1,2016-12-08T20:45:00Z,30.4162,-87.8228,278.0,1111122 
NERRS,ioos:station:NOAA.NERRS:wkbfrwq:1,2016-12-08T21:45:00Z,30.4162,-87.8228,267.0,1111122 
NERRS,ioos:station:NOAA.NERRS:wkbfrwq:1,2016-12-08T22:45:00Z,30.4162,-87.8228,275.0,1111122 
NERRS,ioos:station:NOAA.NERRS:wkbfrwq:1,2016-12-08T23:45:00Z,30.4162,-87.8228,259.0,1111122 
NERRS,ioos:station:NOAA.NERRS:wkbfrwq:1,2016-12-09T00:45:00Z,30.4162,-87.8228,260.0,1111122 
NERRS,ioos:station:NOAA.NERRS:wkbfrwq:1,2016-12-09T02:45:00Z,30.4162,-87.8228,247.0,1111122 
NERRS,ioos:station:NOAA.NERRS:wkbfrwq:1,2016-12-09T03:45:00Z,30.4162,-87.8228,281.0,1111122 
NERRS,ioos:station:NOAA.NERRS:wkbfrwq:1,2016-12-09T06:45:00Z,30.4162,-87.8228,212.0,1111122 
NERRS,ioos:station:NOAA.NERRS:wkbfrwq:1,2016-12-09T08:45:00Z,30.4162,-87.8228,289.0,1111122 
NERRS,ioos:station:NOAA.NERRS:wkbfrwq:1,2016-12-09T09:45:00Z,30.4162,-87.8228,291.0,1111122 
NERRS,ioos:station:NOAA.NERRS:wkbfrwq:1,2016-12-09T10:45:00Z,30.4162,-87.8228,158.0,1111122 
NERRS,ioos:station:NOAA.NERRS:wkbfrwq:1,2016-12-09T11:45:00Z,30.4162,-87.8228,278.0,1111122 
NERRS,ioos:station:NOAA.NERRS:wkbfrwq:1,2016-12-09T12:45:00Z,30.4162,-87.8228,267.0,1111122 
NERRS,ioos:station:NOAA.NERRS:wkbfrwq:1,2016-12-09T13:45:00Z,30.4162,-87.8228,291.0,1111122 
NERRS,ioos:station:NOAA.NERRS:wkbfrwq:1,2016-12-09T14:45:00Z,30.4162,-87.8228,304.0,1111122 
NERRS,ioos:station:NOAA.NERRS:wkbfrwq:1,2016-12-09T15:45:00Z,30.4162,-87.8228,296.0,1111122 
NERRS,ioos:station:NOAA.NERRS:wkbfrwq:1,2016-12-09T16:45:00Z,30.4162,-87.8228,287.0,1111122 
NERRS,ioos:station:NOAA.NERRS:wkbfrwq:1,2016-12-09T19:45:00Z,30.4162,-87.8228,261.0,1111122 
NERRS,ioos:station:NOAA.NERRS:wkbfrwq:1,2016-12-09T20:45:00Z,30.4162,-87.8228,283.0,1111122 
NERRS,ioos:station:NOAA.NERRS:wkbfrwq:1,2016-12-09T21:45:00Z,30.4162,-87.8228,265.0,1111122 
NERRS,ioos:station:NOAA.NERRS:wkbfrwq:1,2016-12-09T22:45:00Z,30.4162,-87.8228,263.0,1111122 
NERRS,ioos:station:NOAA.NERRS:wkbfrwq:1,2016-12-09T23:45:00Z,30.4162,-87.8228,277.0,1111122 
NERRS,ioos:station:NOAA.NERRS:wkbfrwq:1,2016-12-10T00:45:00Z,30.4162,-87.8228,270.0,1111122 
NERRS,ioos:station:NOAA.NERRS:wkbfrwq:1,2016-12-10T01:45:00Z,30.4162,-87.8228,254.0,1111122 
NERRS,ioos:station:NOAA.NERRS:wkbfrwq:1,2016-12-10T02:45:00Z,30.4162,-87.8228,252.0,1111122 
NERRS,ioos:station:NOAA.NERRS:wkbfrwq:1,2016-12-10T03:45:00Z,30.4162,-87.8228,178.0,1111122 
NERRS,ioos:station:NOAA.NERRS:wkbfrwq:1,2016-12-10T04:45:00Z,30.4162,-87.8228,145.0,1111122 
NERRS,ioos:station:NOAA.NERRS:wkbfrwq:1,2016-12-10T05:45:00Z,30.4162,-87.8228,146.0,1111122 
NERRS,ioos:station:NOAA.NERRS:wkbfrwq:1,2016-12-10T07:45:00Z,30.4162,-87.8228,133.0,1111122 
NERRS,ioos:station:NOAA.NERRS:wkbfrwq:1,2016-12-10T08:45:00Z,30.4162,-87.8228,142.0,1111122 
NERRS,ioos:station:NOAA.NERRS:wkbfrwq:1,2016-12-10T09:45:00Z,30.4162,-87.8228,136.0,1111122 
NERRS,ioos:station:NOAA.NERRS:wkbfrwq:1,2016-12-10T10:45:00Z,30.4162,-87.8228,266.0,1111122 
NERRS,ioos:station:NOAA.NERRS:wkbfrwq:1,2016-12-10T11:45:00Z,30.4162,-87.8228,259.0,1111122 
NERRS,ioos:station:NOAA.NERRS:wkbfrwq:1,2016-12-10T12:45:00Z,30.4162,-87.8228,266.0,1111122 
NERRS,ioos:station:NOAA.NERRS:wkbfrwq:1,2016-12-10T13:45:00Z,30.4162,-87.8228,288.0,1111122 
NERRS,ioos:station:NOAA.NERRS:wkbfrwq:1,2016-12-10T14:45:00Z,30.4162,-87.8228,265.0,1111122 
NERRS,ioos:station:NOAA.NERRS:wkbfrwq:1,2016-12-10T15:45:00Z,30.4162,-87.8228,277.0,1111122 
NERRS,ioos:station:NOAA.NERRS:wkbfrwq:1,2016-12-10T16:45:00Z,30.4162,-87.8228,290.0,1111122 
NERRS,ioos:station:NOAA.NERRS:wkbfrwq:1,2016-12-10T17:45:00Z,30.4162,-87.8228,268.0,1111122 
NERRS,ioos:station:NOAA.NERRS:wkbfrwq:1,2016-12-10T21:45:00Z,30.4162,-87.8228,298.0,1111122 
NERRS,ioos:station:NOAA.NERRS:wkbfrwq:1,2016-12-10T22:45:00Z,30.4162,-87.8228,272.0,1111122 
NERRS,ioos:station:NOAA.NERRS:wkbfrwq:1,2016-12-10T23:45:00Z,30.4162,-87.8228,292.0,1111122 
NERRS,ioos:station:NOAA.NERRS:wkbfrwq:1,2016-12-11T00:45:00Z,30.4162,-87.8228,301.0,1111122 
NERRS,ioos:station:NOAA.NERRS:wkbfrwq:1,2016-12-11T01:45:00Z,30.4162,-87.8228,311.0,1111122 
NERRS,ioos:station:NOAA.NERRS:wkbfrwq:1,2016-12-11T02:45:00Z,30.4162,-87.8228,277.0,1111122 
NERRS,ioos:station:NOAA.NERRS:wkbfrwq:1,2016-12-11T03:45:00Z,30.4162,-87.8228,317.0,1111122 
NERRS,ioos:station:NOAA.NERRS:wkbfrwq:1,2016-12-11T04:45:00Z,30.4162,-87.8228,236.0,1111122 
NERRS,ioos:station:NOAA.NERRS:wkbfrwq:1,2016-12-11T05:45:00Z,30.4162,-87.8228,157.0,1111122 
NERRS,ioos:station:NOAA.NERRS:wkbfrwq:1,2016-12-11T06:45:00Z,30.4162,-87.8228,143.0,1111122 
NERRS,ioos:station:NOAA.NERRS:wkbfrwq:1,2016-12-11T07:45:00Z,30.4162,-87.8228,146.0,1111122 
NERRS,ioos:station:NOAA.NERRS:wkbfrwq:1,2016-12-11T08:45:00Z,30.4162,-87.8228,153.0,1111122 
NERRS,ioos:station:NOAA.NERRS:wkbfrwq:1,2016-12-11T09:45:00Z,30.4162,-87.8228,164.0,1111122 
NERRS,ioos:station:NOAA.NERRS:wkbfrwq:1,2016-12-11T10:45:00Z,30.4162,-87.8228,179.0,1111122 
NERRS,ioos:station:NOAA.NERRS:wkbfrwq:1,2016-12-11T11:45:00Z,30.4162,-87.8228,220.0,1111122 
NERRS,ioos:station:NOAA.NERRS:wkbfrwq:1,2016-12-11T12:45:00Z,30.4162,-87.8228,261.0,1111122 
NERRS,ioos:station:NOAA.NERRS:wkbfrwq:1,2016-12-11T13:45:00Z,30.4162,-87.8228,233.0,1111122 
NERRS,ioos:station:NOAA.NERRS:wkbfrwq:1,2016-12-11T14:45:00Z,30.4162,-87.8228,216.0,1111122 
NERRS,ioos:station:NOAA.NERRS:wkbfrwq:1,2016-12-11T16:45:00Z,30.4162,-87.8228,241.0,1111122 
NERRS,ioos:station:NOAA.NERRS:wkbfrwq:1,2016-12-11T17:45:00Z,30.4162,-87.8228,286.0,1111122 
NERRS,ioos:station:NOAA.NERRS:wkbfrwq:1,2016-12-11T18:45:00Z,30.4162,-87.8228,263.0,1111122 
NERRS,ioos:station:NOAA.NERRS:wkbfrwq:1,2016-12-11T19:45:00Z,30.4162,-87.8228,252.0,1111122 
NERRS,ioos:station:NOAA.NERRS:wkbfrwq:1,2016-12-11T20:45:00Z,30.4162,-87.8228,253.0,1111122 
NERRS,ioos:station:NOAA.NERRS:wkbfrwq:1,2016-12-11T21:45:00Z,30.4162,-87.8228,272.0,1111122 
NERRS,ioos:station:NOAA.NERRS:wkbfrwq:1,2016-12-11T22:45:00Z,30.4162,-87.8228,246.0,1111122 
NERRS,ioos:station:NOAA.NERRS:wkbfrwq:1,2016-12-11T23:45:00Z,30.4162,-87.8228,275.0,1111122 
NERRS,ioos:station:NOAA.NERRS:wkbfrwq:1,2016-12-12T02:45:00Z,30.4162,-87.8228,263.0,1111122 
NERRS,ioos:station:NOAA.NERRS:wkbfrwq:1,2016-12-12T03:45:00Z,30.4162,-87.8228,224.0,1111122 
NERRS,ioos:station:NOAA.NERRS:wkbfrwq:1,2016-12-12T04:45:00Z,30.4162,-87.8228,150.0,1111122 
NERRS,ioos:station:NOAA.NERRS:wkbfrwq:1,2016-12-12T05:45:00Z,30.4162,-87.8228,173.0,1111122 
NERRS,ioos:station:NOAA.NERRS:wkbfrwq:1,2016-12-12T06:45:00Z,30.4162,-87.8228,158.0,1111122 
NERRS,ioos:station:NOAA.NERRS:wkbfrwq:1,2016-12-12T07:45:00Z,30.4162,-87.8228,130.0,1111122 
NERRS,ioos:station:NOAA.NERRS:wkbfrwq:1,2016-12-12T08:45:00Z,30.4162,-87.8228,131.0,1111122 
NERRS,ioos:station:NOAA.NERRS:wkbfrwq:1,2016-12-12T09:45:00Z,30.4162,-87.8228,134.0,1111122 
NERRS,ioos:station:NOAA.NERRS:wkbfrwq:1,2016-12-12T12:45:00Z,30.4162,-87.8228,215.0,1111122 
NERRS,ioos:station:NOAA.NERRS:wkbfrwq:1,2016-12-12T13:45:00Z,30.4162,-87.8228,214.0,1111122 
NERRS,ioos:station:NOAA.NERRS:wkbfrwq:1,2016-12-12T14:45:00Z,30.4162,-87.8228,202.0,1111122 
NERRS,ioos:station:NOAA.NERRS:wkbfrwq:1,2016-12-12T15:45:00Z,30.4162,-87.8228,210.0,1111122 
NERRS,ioos:station:NOAA.NERRS:wkbfrwq:1,2016-12-12T16:45:00Z,30.4162,-87.8228,222.0,1111122 
NERRS,ioos:station:NOAA.NERRS:wkbfrwq:1,2016-12-12T17:45:00Z,30.4162,-87.8228,257.0,1111122 
NERRS,ioos:station:NOAA.NERRS:wkbfrwq:1,2016-12-12T18:45:00Z,30.4162,-87.8228,201.0,1111122 
NERRS,ioos:station:NOAA.NERRS:wkbfrwq:1,2016-12-12T19:45:00Z,30.4162,-87.8228,198.0,1111122 
NERRS,ioos:station:NOAA.NERRS:wkbfrwq:1,2016-12-12T20:45:00Z,30.4162,-87.8228,204.0,1111122 
NERRS,ioos:station:NOAA.NERRS:wkbfrwq:1,2016-12-12T21:45:00Z,30.4162,-87.8228,195.0,1111122 
NERRS,ioos:station:NOAA.NERRS:wkbfrwq:1,2016-12-12T22:45:00Z,30.4162,-87.8228,211.0,1111122 
NERRS,ioos:station:NOAA.NERRS:wkbfrwq:1,2016-12-12T23:45:00Z,30.4162,-87.8228,220.0,1111122 
NERRS,ioos:station:NOAA.NERRS:wkbfrwq:1,2016-12-13T00:45:00Z,30.4162,-87.8228,239.0,1111122 
NERRS,ioos:station:NOAA.NERRS:wkbfrwq:1,2016-12-13T01:45:00Z,30.4162,-87.8228,240.0,1111122 
NERRS,ioos:station:NOAA.NERRS:wkbfrwq:1,2016-12-13T02:45:00Z,30.4162,-87.8228,233.0,1111122 
NERRS,ioos:station:NOAA.NERRS:wkbfrwq:1,2016-12-13T03:45:00Z,30.4162,-87.8228,236.0,1111122 
NERRS,ioos:station:NOAA.NERRS:wkbfrwq:1,2016-12-13T04:45:00Z,30.4162,-87.8228,186.0,1111122 
NERRS,ioos:station:NOAA.NERRS:wkbfrwq:1,2016-12-13T05:45:00Z,30.4162,-87.8228,158.0,1111122 
NERRS,ioos:station:NOAA.NERRS:wkbfrwq:1,2016-12-13T08:45:00Z,30.4162,-87.8228,125.0,1111122 
NERRS,ioos:station:NOAA.NERRS:wkbfrwq:1,2016-12-13T09:45:00Z,30.4162,-87.8228,132.0,1111122 
NERRS,ioos:station:NOAA.NERRS:wkbfrwq:1,2016-12-13T10:45:00Z,30.4162,-87.8228,131.0,1111122 
NERRS,ioos:station:NOAA.NERRS:wkbfrwq:1,2016-12-13T11:45:00Z,30.4162,-87.8228,135.0,1111122 
NERRS,ioos:station:NOAA.NERRS:wkbfrwq:1,2016-12-13T15:45:00Z,30.4162,-87.8228,65.0,1111122 
NERRS,ioos:station:NOAA.NERRS:wkbfrwq:1,2016-12-13T16:45:00Z,30.4162,-87.8228,60.0,1111122 